Time,TemperatureF,DewpointF,PressureIn,WindDirection,WindDirectionDegrees,WindSpeedMPH,WindSpeedGustMPH,Humidity,HourlyPrecipIn,Conditions,Clouds,dailyrainin,SolarRadiationWatts/m^2,SoftwareType,DateUTC
2017-12-15 00:03:00,23.4,17.0,29.99,SE,130,0.0,4.0,76,0.00,,,0.00,0,WeatherHawk,2017-12-15 06:03:00,
2017-12-15 00:08:00,23.4,17.0,29.98,West,262,0.0,3.0,76,0.00,,,0.00,1,WeatherHawk,2017-12-15 06:08:00,
2017-12-15 00:13:00,23.4,17.0,29.98,West,262,0.0,3.0,76,0.00,,,0.00,0,WeatherHawk,2017-12-15 06:13:00,
2017-12-15 00:18:00,23.4,16.9,29.98,South,171,0.0,4.0,76,0.00,,,0.00,0,WeatherHawk,2017-12-15 06:18:00,
2017-12-15 00:23:00,23.4,17.0,29.98,SSW,197,0.0,4.0,76,0.00,,,0.00,0,WeatherHawk,2017-12-15 06:23:00,
2017-12-15 00:28:00,23.4,16.9,29.98,WNW,300,1.0,5.0,76,0.00,,,0.00,1,WeatherHawk,2017-12-15 06:28:00,
2017-12-15 00:33:00,23.4,16.9,29.98,SSW,192,0.0,5.0,76,0.00,,,0.00,0,WeatherHawk,2017-12-15 06:33:00,
2017-12-15 00:39:00,23.3,16.9,29.97,SW,215,0.0,3.0,76,0.00,,,0.00,0,WeatherHawk,2017-12-15 06:39:00,
2017-12-15 00:44:00,23.3,16.9,29.97,SW,219,1.0,3.0,76,0.00,,,0.00,0,WeatherHawk,2017-12-15 06:44:00,
2017-12-15 00:49:00,23.3,16.9,29.97,West,274,0.0,2.0,76,0.00,,,0.00,0,WeatherHawk,2017-12-15 06:49:00,
2017-12-15 00:54:00,23.3,17.2,29.97,SW,219,0.0,2.0,77,0.00,,,0.00,0,WeatherHawk,2017-12-15 06:54:00,
2017-12-15 00:59:00,23.3,17.2,29.97,WSW,248,0.0,3.0,77,0.00,,,0.00,0,WeatherHawk,2017-12-15 06:59:00,
2017-12-15 01:04:00,23.3,17.2,29.97,ESE,115,0.0,3.0,77,0.00,,,0.00,0,WeatherHawk,2017-12-15 07:04:00,
2017-12-15 01:09:00,23.4,17.3,29.97,SW,221,0.0,2.0,77,0.00,,,0.00,0,WeatherHawk,2017-12-15 07:09:00,
2017-12-15 01:14:00,23.4,17.3,29.97,North,3,0.0,2.0,77,0.00,,,0.00,0,WeatherHawk,2017-12-15 07:14:00,
2017-12-15 01:19:00,23.5,17.6,29.97,West,267,0.0,0.0,78,0.00,,,0.00,0,WeatherHawk,2017-12-15 07:19:00,
2017-12-15 01:24:00,23.5,17.7,29.97,SW,232,0.0,0.0,78,0.00,,,0.00,0,WeatherHawk,2017-12-15 07:24:00,
2017-12-15 01:29:00,23.6,17.8,29.97,WNW,294,3.0,0.0,78,0.00,,,0.00,0,WeatherHawk,2017-12-15 07:29:00,
2017-12-15 01:34:00,23.6,18.0,29.97,WSW,250,0.0,0.0,79,0.00,,,0.00,0,WeatherHawk,2017-12-15 07:34:00,
2017-12-15 01:39:00,23.6,18.0,29.97,SW,230,1.0,0.0,79,0.00,,,0.00,0,WeatherHawk,2017-12-15 07:39:00,
2017-12-15 01:44:00,23.5,18.0,29.97,WSW,239,0.0,0.0,79,0.00,,,0.00,0,WeatherHawk,2017-12-15 07:44:00,
2017-12-15 01:49:00,23.5,17.9,29.97,NW,326,2.0,0.0,79,0.00,,,0.00,0,WeatherHawk,2017-12-15 07:49:00,
2017-12-15 01:54:00,23.4,17.9,29.97,SSW,207,1.0,0.0,79,0.00,,,0.00,0,WeatherHawk,2017-12-15 07:54:00,
2017-12-15 01:59:00,23.3,17.8,29.97,SW,227,1.0,0.0,79,0.00,,,0.00,0,WeatherHawk,2017-12-15 07:59:00,
2017-12-15 02:04:00,23.2,18.0,29.97,SW,233,1.0,0.0,80,0.00,,,0.00,0,WeatherHawk,2017-12-15 08:04:00,
2017-12-15 02:09:00,23.2,17.9,29.97,SW,228,1.0,0.0,80,0.00,,,0.00,1,WeatherHawk,2017-12-15 08:09:00,
2017-12-15 02:14:00,23.2,18.0,29.97,SW,224,0.0,0.0,80,0.00,,,0.00,0,WeatherHawk,2017-12-15 08:14:00,
2017-12-15 02:19:00,23.2,17.9,29.97,SW,236,1.0,0.0,80,0.00,,,0.00,0,WeatherHawk,2017-12-15 08:19:00,
2017-12-15 02:24:00,23.2,18.2,29.97,WSW,246,2.0,0.0,81,0.00,,,0.00,0,WeatherHawk,2017-12-15 08:24:00,
2017-12-15 02:29:00,23.1,18.2,29.97,West,277,0.0,0.0,81,0.00,,,0.00,0,WeatherHawk,2017-12-15 08:29:00,
2017-12-15 02:34:00,23.0,18.1,29.96,West,265,0.0,0.0,81,0.00,,,0.00,0,WeatherHawk,2017-12-15 08:34:00,
2017-12-15 02:39:00,23.0,18.0,29.97,NW,314,1.0,0.0,81,0.00,,,0.00,0,WeatherHawk,2017-12-15 08:39:00,
2017-12-15 02:44:00,22.9,18.3,29.97,SSE,161,1.0,-999.0,82,0.00,,,0.00,0,WeatherHawk,2017-12-15 08:44:00,
2017-12-15 02:49:00,22.8,18.2,29.96,NW,314,6.0,0.0,82,0.00,,,0.00,1,WeatherHawk,2017-12-15 08:49:00,
2017-12-15 02:54:00,22.8,18.1,29.97,WSW,253,1.0,0.0,82,0.00,,,0.00,1,WeatherHawk,2017-12-15 08:54:00,
2017-12-15 02:59:00,22.6,18.0,29.97,West,279,2.0,0.0,82,0.00,,,0.00,0,WeatherHawk,2017-12-15 08:59:00,
2017-12-15 03:04:00,22.4,17.8,29.97,West,278,2.0,0.0,82,0.00,,,0.00,0,WeatherHawk,2017-12-15 09:04:00,
2017-12-15 03:09:00,22.2,17.3,29.97,West,261,0.0,0.0,81,0.00,,,0.00,0,WeatherHawk,2017-12-15 09:09:00,
2017-12-15 03:14:00,22.1,16.6,29.97,West,268,0.0,0.0,79,0.00,,,0.00,0,WeatherHawk,2017-12-15 09:14:00,
2017-12-15 03:19:00,21.9,16.2,29.97,WSW,240,1.0,0.0,78,0.00,,,0.00,0,WeatherHawk,2017-12-15 09:19:00,
2017-12-15 03:24:00,21.9,16.1,29.97,WSW,255,0.0,0.0,78,0.00,,,0.00,0,WeatherHawk,2017-12-15 09:24:00,
2017-12-15 03:29:00,21.8,16.0,29.97,West,262,0.0,0.0,78,0.00,,,0.00,0,WeatherHawk,2017-12-15 09:29:00,
2017-12-15 03:34:00,21.7,15.6,29.97,WSW,244,3.0,0.0,77,0.00,,,0.00,0,WeatherHawk,2017-12-15 09:34:00,
2017-12-15 03:39:00,21.6,15.5,29.97,WSW,241,0.0,0.0,77,0.00,,,0.00,0,WeatherHawk,2017-12-15 09:39:00,
2017-12-15 03:44:00,21.4,15.4,29.97,SW,228,0.0,0.0,77,0.00,,,0.00,0,WeatherHawk,2017-12-15 09:44:00,
2017-12-15 03:49:00,21.4,15.4,29.97,SW,227,2.0,0.0,77,0.00,,,0.00,0,WeatherHawk,2017-12-15 09:49:00,
2017-12-15 03:54:00,21.3,15.6,29.96,SW,227,1.0,-999.0,78,0.00,,,0.00,1,WeatherHawk,2017-12-15 09:54:00,
2017-12-15 03:59:00,21.4,15.9,29.97,WSW,249,0.0,0.0,79,0.00,,,0.00,0,WeatherHawk,2017-12-15 09:59:00,
2017-12-15 04:04:00,21.4,15.9,29.96,West,273,2.0,0.0,79,0.00,,,0.00,0,WeatherHawk,2017-12-15 10:04:00,
2017-12-15 04:09:00,21.4,16.0,29.97,West,267,0.0,0.0,79,0.00,,,0.00,0,WeatherHawk,2017-12-15 10:09:00,
2017-12-15 04:14:00,21.5,16.3,29.96,WSW,243,0.0,0.0,80,0.00,,,0.00,0,WeatherHawk,2017-12-15 10:14:00,
2017-12-15 04:19:00,21.4,16.2,29.96,SSW,206,1.0,-999.0,80,0.00,,,0.00,0,WeatherHawk,2017-12-15 10:19:00,
2017-12-15 04:24:00,21.5,16.3,29.96,West,269,2.0,0.0,80,0.00,,,0.00,0,WeatherHawk,2017-12-15 10:24:00,
2017-12-15 04:29:00,21.4,16.5,29.96,WSW,243,0.0,0.0,81,0.00,,,0.00,0,WeatherHawk,2017-12-15 10:29:00,
2017-12-15 04:39:00,21.4,16.5,29.96,SW,223,0.0,0.0,81,0.00,,,0.00,0,WeatherHawk,2017-12-15 10:39:00,
2017-12-15 04:44:00,21.4,16.8,29.96,South,182,2.0,0.0,82,0.00,,,0.00,0,WeatherHawk,2017-12-15 10:44:00,
2017-12-15 04:49:00,21.5,16.9,29.96,North,351,2.0,0.0,82,0.00,,,0.00,1,WeatherHawk,2017-12-15 10:49:00,
2017-12-15 04:54:00,21.5,16.9,29.95,SW,232,0.0,0.0,82,0.00,,,0.00,0,WeatherHawk,2017-12-15 10:54:00,
2017-12-15 04:59:00,21.6,17.2,29.95,SW,233,3.0,4.0,83,0.00,,,0.00,1,WeatherHawk,2017-12-15 10:59:00,
2017-12-15 05:04:00,21.6,17.2,29.96,SW,233,0.0,4.0,83,0.00,,,0.00,0,WeatherHawk,2017-12-15 11:04:00,
2017-12-15 05:09:00,21.7,17.3,29.96,SW,228,1.0,0.0,83,0.00,,,0.00,0,WeatherHawk,2017-12-15 11:09:00,
2017-12-15 05:14:00,21.9,17.2,29.96,West,261,3.0,0.0,82,0.00,,,0.00,0,WeatherHawk,2017-12-15 11:14:00,
2017-12-15 05:19:00,21.9,17.0,29.95,WSW,254,2.0,0.0,81,0.00,,,0.00,0,WeatherHawk,2017-12-15 11:19:00,
2017-12-15 05:24:00,21.8,16.9,29.96,SW,232,0.0,0.0,81,0.00,,,0.00,1,WeatherHawk,2017-12-15 11:24:00,
2017-12-15 05:29:00,21.9,17.0,29.96,WSW,255,1.0,0.0,81,0.00,,,0.00,0,WeatherHawk,2017-12-15 11:29:00,
2017-12-15 05:34:00,21.9,17.0,29.95,WSW,246,0.0,0.0,81,0.00,,,0.00,0,WeatherHawk,2017-12-15 11:34:00,
2017-12-15 05:39:00,21.9,17.0,29.96,West,278,1.0,0.0,81,0.00,,,0.00,0,WeatherHawk,2017-12-15 11:39:00,
2017-12-15 05:44:00,21.8,16.9,29.96,SW,230,0.0,0.0,81,0.00,,,0.00,1,WeatherHawk,2017-12-15 11:44:00,
2017-12-15 05:49:00,21.9,17.0,29.96,SW,218,0.0,0.0,81,0.00,,,0.00,0,WeatherHawk,2017-12-15 11:49:00,
2017-12-15 05:54:00,22.0,17.0,29.96,WSW,243,0.0,0.0,81,0.00,,,0.00,0,WeatherHawk,2017-12-15 11:54:00,
2017-12-15 05:59:00,21.9,17.0,29.96,SW,230,0.0,0.0,81,0.00,,,0.00,0,WeatherHawk,2017-12-15 11:59:00,
2017-12-15 06:04:00,21.9,16.9,29.96,NNW,337,0.0,0.0,81,0.00,,,0.00,0,WeatherHawk,2017-12-15 12:04:00,
2017-12-15 06:09:00,22.0,17.4,29.95,WSW,248,0.0,4.0,82,0.00,,,0.00,0,WeatherHawk,2017-12-15 12:09:00,
2017-12-15 06:14:00,21.9,17.3,29.96,West,266,0.0,4.0,82,0.00,,,0.00,0,WeatherHawk,2017-12-15 12:14:00,
2017-12-15 06:19:00,22.1,17.4,29.96,West,260,0.0,3.0,82,0.00,,,0.00,0,WeatherHawk,2017-12-15 12:19:00,
2017-12-15 06:24:00,22.1,17.5,29.96,South,175,1.0,3.0,82,0.00,,,0.00,0,WeatherHawk,2017-12-15 12:24:00,
2017-12-15 06:29:00,22.2,17.6,29.96,SSW,199,2.0,0.0,82,0.00,,,0.00,0,WeatherHawk,2017-12-15 12:29:00,
2017-12-15 06:34:00,22.3,17.4,29.96,WSW,239,0.0,3.0,81,0.00,,,0.00,0,WeatherHawk,2017-12-15 12:34:00,
2017-12-15 06:39:00,22.5,16.7,29.96,West,280,2.0,0.0,78,0.00,,,0.00,0,WeatherHawk,2017-12-15 12:39:00,
2017-12-15 06:44:00,22.4,16.3,29.96,NW,312,2.0,8.0,77,0.00,,,0.00,0,WeatherHawk,2017-12-15 12:44:00,
2017-12-15 06:49:00,22.3,16.2,29.96,West,278,0.0,8.0,77,0.00,,,0.00,1,WeatherHawk,2017-12-15 12:49:00,
2017-12-15 06:55:00,22.3,16.5,29.96,WSW,252,0.0,0.0,78,0.00,,,0.00,0,WeatherHawk,2017-12-15 12:55:00,
2017-12-15 07:00:00,22.3,16.8,29.96,West,275,0.0,0.0,79,0.00,,,0.00,0,WeatherHawk,2017-12-15 13:00:00,
2017-12-15 07:06:00,22.2,16.7,29.96,NW,309,2.0,4.0,79,0.00,,,0.00,0,WeatherHawk,2017-12-15 13:06:00,
2017-12-15 07:11:00,22.1,16.9,29.96,WSW,247,0.0,4.0,80,0.00,,,0.00,0,WeatherHawk,2017-12-15 13:11:00,
2017-12-15 07:16:00,22.1,16.8,29.96,West,273,2.0,3.0,80,0.00,,,0.00,0,WeatherHawk,2017-12-15 13:16:00,
2017-12-15 07:21:00,22.1,16.6,29.96,South,191,0.0,3.0,79,0.00,,,0.00,2,WeatherHawk,2017-12-15 13:21:00,
2017-12-15 07:26:00,22.1,16.6,29.96,SW,223,1.0,8.0,79,0.00,,,0.00,3,WeatherHawk,2017-12-15 13:26:00,
2017-12-15 07:31:00,22.3,16.5,29.96,NNW,327,6.0,8.0,78,0.00,,,0.00,4,WeatherHawk,2017-12-15 13:31:00,
2017-12-15 07:37:00,22.2,16.1,29.95,NW,318,3.0,6.0,77,0.00,,,0.00,6,WeatherHawk,2017-12-15 13:37:00,
2017-12-15 07:42:00,22.3,15.6,29.96,WSW,256,0.0,6.0,75,0.00,,,0.00,9,WeatherHawk,2017-12-15 13:42:00,
2017-12-15 07:48:00,22.4,15.1,29.96,NW,308,2.0,7.0,73,0.00,,,0.00,15,WeatherHawk,2017-12-15 13:48:00,
2017-12-15 07:53:00,22.5,14.5,29.96,WNW,290,0.0,7.0,71,0.00,,,0.00,17,WeatherHawk,2017-12-15 13:53:00,
2017-12-15 07:58:00,22.7,14.0,29.96,WSW,240,0.0,6.0,69,0.00,,,0.00,20,WeatherHawk,2017-12-15 13:58:00,
2017-12-15 08:03:00,22.7,13.4,29.96,WSW,238,7.0,7.0,67,0.00,,,0.00,21,WeatherHawk,2017-12-15 14:03:00,
2017-12-15 08:09:00,22.5,12.9,29.96,West,263,0.0,0.0,66,0.00,,,0.00,32,WeatherHawk,2017-12-15 14:09:00,
2017-12-15 08:14:00,22.5,13.2,29.96,WSW,240,0.0,3.0,67,0.00,,,0.00,42,WeatherHawk,2017-12-15 14:14:00,
2017-12-15 08:20:00,22.6,13.3,29.96,West,279,0.0,3.0,67,0.00,,,0.00,56,WeatherHawk,2017-12-15 14:20:00,
2017-12-15 08:25:00,23.0,14.1,29.96,NW,318,1.0,2.0,68,0.00,,,0.00,70,WeatherHawk,2017-12-15 14:25:00,
2017-12-15 08:31:00,23.3,13.3,29.96,West,263,0.0,2.0,65,0.00,,,0.00,52,WeatherHawk,2017-12-15 14:31:00,
2017-12-15 08:36:00,23.5,13.1,29.96,West,280,0.0,0.0,64,0.00,,,0.00,66,WeatherHawk,2017-12-15 14:36:00,
2017-12-15 08:41:00,23.5,12.4,29.96,WNW,295,0.0,0.0,62,0.00,,,0.00,71,WeatherHawk,2017-12-15 14:41:00,
2017-12-15 08:48:00,23.5,12.1,29.96,WSW,244,4.0,6.0,61,0.00,,,0.00,74,WeatherHawk,2017-12-15 14:48:00,
2017-12-15 08:53:00,23.6,11.7,29.96,SW,227,2.0,6.0,60,0.00,,,0.00,73,WeatherHawk,2017-12-15 14:53:00,
2017-12-15 08:58:00,23.6,11.0,29.97,SW,223,6.0,13.0,58,0.00,,,0.00,126,WeatherHawk,2017-12-15 14:58:00,
2017-12-15 09:03:00,24.4,11.8,29.97,West,261,1.0,13.0,58,0.00,,,0.00,158,WeatherHawk,2017-12-15 15:03:00,
2017-12-15 09:09:00,24.4,11.3,29.97,WSW,252,2.0,0.0,57,0.00,,,0.00,114,WeatherHawk,2017-12-15 15:09:00,
2017-12-15 09:14:00,23.8,10.8,29.97,WNW,294,6.0,-999.0,57,0.00,,,0.00,140,WeatherHawk,2017-12-15 15:14:00,
2017-12-15 09:19:00,24.9,11.8,29.97,WSW,251,0.0,0.0,57,0.00,,,0.00,231,WeatherHawk,2017-12-15 15:19:00,
2017-12-15 09:24:00,28.5,14.4,29.97,West,265,0.0,-999.0,55,0.00,,,0.00,345,WeatherHawk,2017-12-15 15:24:00,
2017-12-15 09:29:00,27.1,11.4,29.97,West,275,2.0,-999.0,51,0.00,,,0.00,325,WeatherHawk,2017-12-15 15:29:00,
2017-12-15 09:34:00,27.9,10.8,29.97,SW,232,0.0,7.0,48,0.00,,,0.00,336,WeatherHawk,2017-12-15 15:34:00,
2017-12-15 09:39:00,25.1,8.6,29.96,NW,321,3.0,0.0,49,0.00,,,0.00,104,WeatherHawk,2017-12-15 15:39:00,
2017-12-15 09:49:00,27.1,10.5,29.97,East,88,3.0,0.0,49,0.00,,,0.00,299,WeatherHawk,2017-12-15 15:49:00,
2017-12-15 09:54:00,26.1,8.7,29.97,West,259,2.0,-999.0,47,0.00,,,0.00,156,WeatherHawk,2017-12-15 15:54:00,
2017-12-15 09:59:00,26.5,9.9,29.97,WSW,256,0.0,0.0,49,0.00,,,0.00,123,WeatherHawk,2017-12-15 15:59:00,
2017-12-15 10:04:00,25.9,9.4,29.97,SSW,208,1.0,0.0,49,0.00,,,0.00,131,WeatherHawk,2017-12-15 16:04:00,
2017-12-15 10:09:00,25.5,9.9,29.97,WNW,295,2.0,4.0,51,0.00,,,0.00,167,WeatherHawk,2017-12-15 16:09:00,
2017-12-15 10:14:00,25.6,10.5,29.97,WSW,257,0.0,4.0,52,0.00,,,0.00,163,WeatherHawk,2017-12-15 16:14:00,
2017-12-15 10:19:00,25.8,11.0,29.97,WSW,246,3.0,0.0,53,0.00,,,0.00,161,WeatherHawk,2017-12-15 16:19:00,
2017-12-15 10:24:00,26.9,12.9,29.97,NW,306,0.0,0.0,55,0.00,,,0.00,158,WeatherHawk,2017-12-15 16:24:00,
2017-12-15 10:29:00,26.2,11.9,29.97,SSW,212,1.0,0.0,54,0.00,,,0.00,227,WeatherHawk,2017-12-15 16:29:00,
2017-12-15 10:34:00,26.7,12.7,29.97,WSW,247,0.0,0.0,55,0.00,,,0.00,211,WeatherHawk,2017-12-15 16:34:00,
2017-12-15 10:39:00,26.4,12.1,29.97,SW,215,2.0,5.0,54,0.00,,,0.00,175,WeatherHawk,2017-12-15 16:39:00,
2017-12-15 10:44:00,25.6,11.3,29.96,WSW,241,3.0,5.0,54,0.00,,,0.00,140,WeatherHawk,2017-12-15 16:44:00,
2017-12-15 10:49:00,26.2,12.2,29.96,WSW,238,3.0,0.0,55,0.00,,,0.00,174,WeatherHawk,2017-12-15 16:49:00,
2017-12-15 10:54:00,26.3,12.4,29.96,WNW,287,2.0,0.0,55,0.00,,,0.00,172,WeatherHawk,2017-12-15 16:54:00,
2017-12-15 10:59:00,26.4,12.5,29.96,NNE,26,2.0,0.0,55,0.00,,,0.00,129,WeatherHawk,2017-12-15 16:59:00,
2017-12-15 11:04:00,26.4,12.9,29.96,NE,40,0.0,0.0,56,0.00,,,0.00,170,WeatherHawk,2017-12-15 17:04:00,
2017-12-15 11:09:00,26.2,12.6,29.96,SSW,202,1.0,-999.0,56,0.00,,,0.00,143,WeatherHawk,2017-12-15 17:09:00,
2017-12-15 11:14:00,26.2,13.1,29.96,West,260,1.0,4.0,57,0.00,,,0.00,132,WeatherHawk,2017-12-15 17:14:00,
2017-12-15 11:19:00,26.3,13.6,29.95,SW,230,3.0,0.0,58,0.00,,,0.00,144,WeatherHawk,2017-12-15 17:19:00,
2017-12-15 11:24:00,26.4,13.7,29.96,West,270,0.0,-999.0,58,0.00,,,0.00,153,WeatherHawk,2017-12-15 17:24:00,
2017-12-15 11:29:00,26.7,14.0,29.96,SW,220,1.0,0.0,58,0.00,,,0.00,137,WeatherHawk,2017-12-15 17:29:00,
2017-12-15 11:35:00,26.5,14.1,29.96,West,260,0.0,0.0,59,0.00,,,0.00,125,WeatherHawk,2017-12-15 17:35:00,
2017-12-15 11:40:00,26.2,13.5,29.96,WSW,240,0.0,0.0,58,0.00,,,0.00,134,WeatherHawk,2017-12-15 17:40:00,
2017-12-15 11:45:00,26.7,14.0,29.96,South,185,1.0,4.0,58,0.00,,,0.00,142,WeatherHawk,2017-12-15 17:45:00,
2017-12-15 11:50:00,27.1,14.3,29.95,WSW,258,0.0,4.0,58,0.00,,,0.00,116,WeatherHawk,2017-12-15 17:50:00,
2017-12-15 11:55:00,27.0,14.6,29.96,West,266,1.0,4.0,59,0.00,,,0.00,126,WeatherHawk,2017-12-15 17:55:00,
2017-12-15 12:05:00,27.1,15.5,29.95,WNW,288,0.0,0.0,61,0.00,,,0.00,169,WeatherHawk,2017-12-15 18:05:00,
2017-12-15 12:11:00,27.0,14.6,29.95,WSW,253,0.0,0.0,59,0.00,,,0.00,126,WeatherHawk,2017-12-15 18:11:00,
2017-12-15 12:16:00,27.4,14.9,29.95,SSW,193,0.0,4.0,59,0.00,,,0.00,159,WeatherHawk,2017-12-15 18:16:00,
2017-12-15 12:21:00,28.1,16.1,29.95,SSE,164,0.0,4.0,60,0.00,,,0.00,139,WeatherHawk,2017-12-15 18:21:00,
2017-12-15 12:26:00,27.9,15.5,29.95,SSW,201,1.0,4.0,59,0.00,,,0.00,154,WeatherHawk,2017-12-15 18:26:00,
2017-12-15 12:31:00,27.9,15.8,29.94,WSW,257,2.0,4.0,60,0.00,,,0.00,203,WeatherHawk,2017-12-15 18:31:00,
2017-12-15 12:36:00,27.7,15.2,29.95,West,273,4.0,6.0,59,0.00,,,0.00,182,WeatherHawk,2017-12-15 18:36:00,
2017-12-15 12:41:00,28.1,15.6,29.95,SSW,213,3.0,6.0,59,0.00,,,0.00,235,WeatherHawk,2017-12-15 18:41:00,
2017-12-15 12:46:00,28.4,15.9,29.94,SSW,199,1.0,0.0,59,0.00,,,0.00,203,WeatherHawk,2017-12-15 18:46:00,
2017-12-15 12:51:00,28.6,16.1,29.94,WSW,240,2.0,0.0,59,0.00,,,0.00,206,WeatherHawk,2017-12-15 18:51:00,
2017-12-15 12:56:00,28.5,16.0,29.94,SW,222,1.0,0.0,59,0.00,,,0.00,155,WeatherHawk,2017-12-15 18:56:00,
2017-12-15 13:01:00,29.3,17.2,29.94,West,265,0.0,0.0,60,0.00,,,0.00,154,WeatherHawk,2017-12-15 19:01:00,
2017-12-15 13:06:00,28.5,16.1,29.94,South,185,5.0,5.0,59,0.00,,,0.00,106,WeatherHawk,2017-12-15 19:06:00,
2017-12-15 13:12:00,28.5,16.4,29.94,WSW,248,2.0,5.0,60,0.00,,,0.00,119,WeatherHawk,2017-12-15 19:12:00,
2017-12-15 13:17:00,28.6,16.9,29.94,West,276,2.0,6.0,61,0.00,,,0.00,134,WeatherHawk,2017-12-15 19:17:00,
2017-12-15 13:22:00,29.2,17.4,29.94,SSW,212,0.0,6.0,61,0.00,,,0.00,120,WeatherHawk,2017-12-15 19:22:00,
2017-12-15 13:24:00,29.3,17.9,29.94,SW,229,0.0,6.0,62,0.00,,,0.00,118,WeatherHawk,2017-12-15 19:24:00,
2017-12-15 13:29:00,28.8,17.1,29.94,WNW,302,2.0,4.0,61,0.00,,,0.00,136,WeatherHawk,2017-12-15 19:29:00,
2017-12-15 13:35:00,29.2,17.8,29.94,NNE,18,0.0,0.0,62,0.00,,,0.00,129,WeatherHawk,2017-12-15 19:35:00,
2017-12-15 13:40:00,29.4,17.6,29.93,WSW,241,0.0,0.0,61,0.00,,,0.00,128,WeatherHawk,2017-12-15 19:40:00,
2017-12-15 13:45:00,29.4,18.0,29.93,NW,326,0.0,0.0,62,0.00,,,0.00,132,WeatherHawk,2017-12-15 19:45:00,
2017-12-15 13:50:00,29.5,17.7,29.93,NNW,329,2.0,0.0,61,0.00,,,0.00,114,WeatherHawk,2017-12-15 19:50:00,
2017-12-15 13:55:00,29.5,17.7,29.94,SW,225,4.0,0.0,61,0.00,,,0.00,104,WeatherHawk,2017-12-15 19:55:00,
2017-12-15 14:00:00,29.3,17.9,29.94,SW,222,2.0,0.0,62,0.00,,,0.00,108,WeatherHawk,2017-12-15 20:00:00,
2017-12-15 14:06:00,29.5,17.8,29.93,West,268,0.0,0.0,61,0.00,,,0.00,100,WeatherHawk,2017-12-15 20:06:00,
2017-12-15 14:11:00,29.6,18.2,29.93,SSW,212,1.0,0.0,62,0.00,,,0.00,89,WeatherHawk,2017-12-15 20:11:00,
2017-12-15 14:16:00,30.0,18.6,29.93,NW,312,2.0,0.0,62,0.00,,,0.00,124,WeatherHawk,2017-12-15 20:16:00,
2017-12-15 14:21:00,29.8,18.4,29.93,WNW,289,0.0,0.0,62,0.00,,,0.00,76,WeatherHawk,2017-12-15 20:21:00,
2017-12-15 14:26:00,29.6,18.5,29.92,SSW,208,0.0,0.0,63,0.00,,,0.00,56,WeatherHawk,2017-12-15 20:26:00,
2017-12-15 14:31:00,30.0,19.3,29.92,NW,318,1.0,0.0,64,0.00,,,0.00,93,WeatherHawk,2017-12-15 20:31:00,
2017-12-15 14:36:00,30.2,19.5,29.93,WSW,241,0.0,0.0,64,0.00,,,0.00,62,WeatherHawk,2017-12-15 20:36:00,
2017-12-15 14:41:00,30.0,19.7,29.92,SW,230,0.0,0.0,65,0.00,,,0.00,47,WeatherHawk,2017-12-15 20:41:00,
2017-12-15 14:46:00,30.2,19.9,29.92,West,268,0.0,0.0,65,0.00,,,0.00,68,WeatherHawk,2017-12-15 20:46:00,
2017-12-15 14:51:00,29.9,20.0,29.93,SSE,150,1.0,0.0,66,0.00,,,0.00,52,WeatherHawk,2017-12-15 20:51:00,
2017-12-15 14:56:00,29.9,20.7,29.93,SW,234,0.0,0.0,68,0.00,,,0.00,51,WeatherHawk,2017-12-15 20:56:00,
2017-12-15 15:01:00,30.0,20.8,29.92,WSW,240,1.0,0.0,68,0.00,,,0.00,54,WeatherHawk,2017-12-15 21:01:00,
2017-12-15 15:06:00,30.0,21.0,29.93,West,277,0.0,0.0,69,0.00,,,0.00,47,WeatherHawk,2017-12-15 21:06:00,
2017-12-15 15:11:00,29.8,21.2,29.93,SSW,210,0.0,0.0,70,0.00,,,0.00,42,WeatherHawk,2017-12-15 21:11:00,
2017-12-15 15:16:00,29.8,21.6,29.92,SW,220,1.0,0.0,71,0.00,,,0.00,39,WeatherHawk,2017-12-15 21:16:00,
2017-12-15 15:21:00,29.8,21.6,29.93,West,279,0.0,0.0,71,0.00,,,0.00,34,WeatherHawk,2017-12-15 21:21:00,
2017-12-15 15:27:00,29.7,21.8,29.93,South,172,0.0,0.0,72,0.00,,,0.00,27,WeatherHawk,2017-12-15 21:27:00,
2017-12-15 15:32:00,29.8,21.9,29.93,West,264,0.0,0.0,72,0.00,,,0.00,27,WeatherHawk,2017-12-15 21:32:00,
2017-12-15 15:37:00,29.7,22.1,29.92,SSW,203,0.0,0.0,73,0.00,,,0.00,28,WeatherHawk,2017-12-15 21:37:00,
2017-12-15 15:42:00,29.8,22.2,29.92,SW,226,1.0,0.0,73,0.00,,,0.00,40,WeatherHawk,2017-12-15 21:42:00,
2017-12-15 15:48:00,29.7,22.4,29.93,SSW,209,0.0,0.0,74,0.00,,,0.00,26,WeatherHawk,2017-12-15 21:48:00,
2017-12-15 15:53:00,29.6,22.3,29.93,WSW,242,1.0,0.0,74,0.00,,,0.00,11,WeatherHawk,2017-12-15 21:53:00,
2017-12-15 15:58:00,29.4,22.5,29.92,SSW,197,0.0,0.0,75,0.00,,,0.00,6,WeatherHawk,2017-12-15 21:58:00,
2017-12-15 16:03:00,29.4,22.8,29.93,SSE,160,0.0,0.0,76,0.00,,,0.00,5,WeatherHawk,2017-12-15 22:03:00,
2017-12-15 16:08:00,29.4,23.1,29.92,SSW,201,1.0,0.0,77,0.00,,,0.00,3,WeatherHawk,2017-12-15 22:08:00,
2017-12-15 16:23:00,29.4,23.4,29.93,WNW,301,0.0,0.0,78,0.00,,,0.00,1,WeatherHawk,2017-12-15 22:23:00,
2017-12-15 16:29:00,29.3,23.6,29.92,South,191,0.0,0.0,79,0.00,,,0.00,0,WeatherHawk,2017-12-15 22:29:00,
2017-12-15 16:34:00,29.2,23.5,29.93,SW,215,0.0,0.0,79,0.00,,,0.00,1,WeatherHawk,2017-12-15 22:34:00,
2017-12-15 16:40:00,29.1,23.4,29.93,South,181,2.0,0.0,79,0.00,,,0.00,0,WeatherHawk,2017-12-15 22:40:00,
2017-12-15 16:45:00,29.1,23.7,29.92,WSW,246,0.0,0.0,80,0.00,,,0.00,0,WeatherHawk,2017-12-15 22:45:00,
2017-12-15 16:50:00,29.2,23.8,29.93,SW,221,2.0,0.0,80,0.00,,,0.00,0,WeatherHawk,2017-12-15 22:50:00,
2017-12-15 16:55:00,29.2,23.8,29.92,SSW,207,0.0,0.0,80,0.00,,,0.00,0,WeatherHawk,2017-12-15 22:55:00,
2017-12-15 16:56:00,29.2,23.8,29.92,SSW,207,0.0,0.0,80,0.00,,,0.00,0,WeatherHawk,2017-12-15 22:56:00,
2017-12-15 17:02:00,29.3,23.9,29.92,SSW,194,0.0,0.0,80,0.00,,,0.00,0,WeatherHawk,2017-12-15 23:02:00,
2017-12-15 17:07:00,29.3,24.2,29.92,WSW,243,0.0,0.0,81,0.00,,,0.00,0,WeatherHawk,2017-12-15 23:07:00,
2017-12-15 17:12:00,29.4,24.3,29.93,SSW,205,0.0,0.0,81,0.00,,,0.00,0,WeatherHawk,2017-12-15 23:12:00,
2017-12-15 17:14:00,29.4,24.3,29.93,West,267,0.0,0.0,81,0.00,,,0.00,0,WeatherHawk,2017-12-15 23:14:00,
2017-12-15 17:19:00,29.5,24.7,29.92,South,179,0.0,0.0,82,0.00,,,0.00,1,WeatherHawk,2017-12-15 23:19:00,
2017-12-15 17:24:00,29.6,24.7,29.92,SSW,192,0.0,0.0,82,0.00,,,0.00,0,WeatherHawk,2017-12-15 23:24:00,
2017-12-15 17:28:00,29.7,25.1,29.92,ESE,113,1.0,0.0,83,0.00,,,0.00,0,WeatherHawk,2017-12-15 23:28:00,
2017-12-15 17:33:00,29.6,25.1,29.93,SSE,160,0.0,0.0,83,0.00,,,0.00,0,WeatherHawk,2017-12-15 23:33:00,
2017-12-15 17:38:00,29.8,25.5,29.92,South,186,2.0,0.0,84,0.00,,,0.00,0,WeatherHawk,2017-12-15 23:38:00,
2017-12-15 17:39:00,29.8,25.5,29.92,South,186,2.0,0.0,84,0.00,,,0.00,0,WeatherHawk,2017-12-15 23:39:00,
2017-12-15 17:44:00,29.8,25.8,29.92,SSW,197,0.0,0.0,85,0.00,,,0.00,0,WeatherHawk,2017-12-15 23:44:00,
2017-12-15 17:49:00,29.8,26.1,29.93,SE,142,1.0,0.0,86,0.00,,,0.00,0,WeatherHawk,2017-12-15 23:49:00,
2017-12-15 17:55:00,29.8,26.1,29.92,SSE,162,2.0,0.0,86,0.00,,,0.00,0,WeatherHawk,2017-12-15 23:55:00,
2017-12-15 18:00:00,29.8,26.2,29.93,SW,222,1.0,0.0,86,0.00,,,0.00,0,WeatherHawk,2017-12-16 00:00:00,
2017-12-15 18:05:00,29.9,26.5,29.93,South,187,1.0,0.0,87,0.00,,,0.00,0,WeatherHawk,2017-12-16 00:05:00,
2017-12-15 18:10:00,29.8,26.4,29.93,SW,214,0.0,0.0,87,0.00,,,0.00,0,WeatherHawk,2017-12-16 00:10:00,
2017-12-15 18:15:00,29.7,26.3,29.93,SSE,161,0.0,0.0,87,0.00,,,0.00,0,WeatherHawk,2017-12-16 00:15:00,
2017-12-15 18:20:00,29.8,26.4,29.92,SSW,200,0.0,0.0,87,0.00,,,0.00,0,WeatherHawk,2017-12-16 00:20:00,
2017-12-15 18:25:00,29.8,26.7,29.93,SSW,206,0.0,0.0,88,0.00,,,0.00,0,WeatherHawk,2017-12-16 00:25:00,
2017-12-15 18:29:00,29.9,26.8,29.93,SSW,213,0.0,-999.0,88,0.00,,,0.00,1,WeatherHawk,2017-12-16 00:29:00,
2017-12-15 18:34:00,29.9,26.8,29.93,South,188,2.0,0.0,88,0.00,,,0.00,0,WeatherHawk,2017-12-16 00:34:00,
2017-12-15 18:39:00,29.9,27.1,29.93,SW,216,0.0,0.0,89,0.00,,,0.00,0,WeatherHawk,2017-12-16 00:39:00,
2017-12-15 18:44:00,30.0,27.1,29.93,South,185,2.0,-999.0,89,0.00,,,0.00,0,WeatherHawk,2017-12-16 00:44:00,
2017-12-15 18:49:00,30.0,27.1,29.93,NW,308,0.0,0.0,89,0.00,,,0.00,0,WeatherHawk,2017-12-16 00:49:00,
2017-12-15 18:59:00,30.1,27.3,29.93,SW,220,1.0,-999.0,89,0.00,,,0.00,0,WeatherHawk,2017-12-16 00:59:00,
2017-12-15 19:04:00,30.1,27.5,29.93,South,182,0.0,0.0,90,0.00,,,0.00,0,WeatherHawk,2017-12-16 01:04:00,
2017-12-15 19:07:00,30.0,27.5,29.93,South,191,0.0,0.0,90,0.00,,,0.00,0,WeatherHawk,2017-12-16 01:07:00,
2017-12-15 19:13:00,30.2,27.6,29.94,SSW,192,0.0,0.0,90,0.00,,,0.00,0,WeatherHawk,2017-12-16 01:13:00,
2017-12-15 19:19:00,30.2,27.6,29.93,SW,231,0.0,0.0,90,0.00,,,0.00,0,WeatherHawk,2017-12-16 01:19:00,
2017-12-15 19:24:00,30.2,27.6,29.93,South,186,0.0,0.0,90,0.00,,,0.00,0,WeatherHawk,2017-12-16 01:24:00,
2017-12-15 19:34:00,30.4,27.8,29.93,South,186,0.0,-999.0,90,0.00,,,0.00,0,WeatherHawk,2017-12-16 01:34:00,
2017-12-15 19:39:00,30.5,27.9,29.94,SSW,210,0.0,0.0,90,0.00,,,0.00,0,WeatherHawk,2017-12-16 01:39:00,
2017-12-15 19:44:00,30.4,27.9,29.94,SSW,207,0.0,-999.0,90,0.00,,,0.00,0,WeatherHawk,2017-12-16 01:44:00,
2017-12-15 19:49:00,30.5,27.9,29.93,SSW,208,1.0,0.0,90,0.00,,,0.00,0,WeatherHawk,2017-12-16 01:49:00,
2017-12-15 19:54:00,30.4,27.9,29.93,SW,226,0.0,0.0,90,0.00,,,0.00,0,WeatherHawk,2017-12-16 01:54:00,
2017-12-15 19:58:00,30.4,27.8,29.93,South,187,0.0,0.0,90,0.00,,,0.00,0,WeatherHawk,2017-12-16 01:58:00,
2017-12-15 20:03:00,30.4,27.9,29.93,SW,216,2.0,0.0,90,0.00,,,0.00,0,WeatherHawk,2017-12-16 02:03:00,
2017-12-15 20:08:00,30.3,27.8,29.93,SSE,156,0.0,0.0,90,0.00,,,0.00,0,WeatherHawk,2017-12-16 02:08:00,
2017-12-15 20:14:00,30.3,27.7,29.92,SE,136,0.0,0.0,90,0.00,,,0.00,0,WeatherHawk,2017-12-16 02:14:00,
2017-12-15 20:19:00,30.2,27.3,29.93,South,180,0.0,0.0,89,0.00,,,0.00,0,WeatherHawk,2017-12-16 02:19:00,